Weather History for KLAA - September, 2012

Change the Weather History Date:

Monday, September 24, 2012

  Actual Average Record
Temperature  
Mean Temperature 70 °F 63 °F  
Max Temperature 91 °F 80 °F 100 °F (1924)
Min Temperature 48 °F 46 °F 30 °F (2000)
Degree Days  
Heating Degree Days 0 4  
Month to date heating degree days 41 47  
Since 1 July heating degree days 41 52  
Cooling Degree Days 5 2  
Month to date cooling degree days 106 111  
Year to date cooling degree days 1622 1100  
Growing Degree Days 19 (Base 50)    
Moisture  
Dew Point 38 °F    
Average Humidity 40    
Maximum Humidity 66    
Minimum Humidity 13    
Precipitation  
Precipitation T in 0.02 in 0.87 in (1959)
Month to date precipitation 0.16 1.07  
Year to date precipitation 4.54 13.44  
Sea Level Pressure  
Sea Level Pressure 29.86 in    
Wind  
Wind Speed 9 mph (West)    
Max Wind Speed 36 mph    
Max Gust Speed 45 mph    
Visibility 10 miles    
Events Rain    
T = Trace of Precipitation, MM = Missing Value Source: NWS Daily Summary

Daily Weather History Graph

Daily Weather History Graph

Search for Another Location

Airport or City:

Trip Planner

Search our weather history database for the weather conditions in past years. The results will help you decide how hot, cold, wet, or windy it might be!

Date:

Astronomy

Sep. 24, 2012 Rise Set
Actual Time 6:40 AM MDT 6:43 PM MDT
Civil Twilight 6:14 AM MDT 7:09 PM MDT
Nautical Twilight 5:43 AM MDT 7:40 PM MDT
Astronomical Twilight 5:12 AM MDT 8:11 PM MDT
Moon 3:27 PM MDT (9/24) 1:04 AM MDT (9/24)
Length of Visible Light 12h 55m
Length of Day
12h 03m
Waxing Gibbous, 71% of the Moon is Illuminated
Sep 24
Waxing Gibbous
Sep 29
Full
Oct 8
Last Quarter
Oct 15
New
Oct 21
First Quarter

Hourly Weather History & Observations

Time (MDT) Temp. Dew Point Humidity Pressure Visibility Wind Dir Wind Speed Gust Speed Precip Events Conditions
12:53 AM 54.0 °F 37.9 °F 55% 29.96 in 10.0 mi East 6.9 mph - N/A   Clear
1:53 AM 51.1 °F 37.0 °F 59% 29.94 in 10.0 mi East 5.8 mph - N/A   Clear
2:53 AM 50.0 °F 37.0 °F 61% 29.92 in 10.0 mi ENE 5.8 mph - N/A   Clear
3:53 AM 48.0 °F 36.0 °F 63% 29.91 in 10.0 mi NNE 3.5 mph - N/A   Clear
4:53 AM 50.0 °F 37.9 °F 63% 29.91 in 10.0 mi NNW 3.5 mph - N/A   Clear
5:53 AM 48.9 °F 37.9 °F 66% 29.92 in 10.0 mi Calm Calm - N/A   Clear
6:53 AM 50.0 °F 37.0 °F 61% 29.95 in 10.0 mi West 5.8 mph - N/A   Clear
7:53 AM 54.0 °F 39.0 °F 57% 29.95 in 10.0 mi WSW 6.9 mph - N/A   Clear
8:53 AM 59.0 °F 39.0 °F 48% 29.95 in 10.0 mi West 8.1 mph - N/A   Clear
9:53 AM 64.9 °F 39.9 °F 40% 29.94 in 10.0 mi WSW 15.0 mph - N/A   Clear
10:53 AM 70.0 °F 39.0 °F 32% 29.93 in 10.0 mi WSW 11.5 mph - N/A   Clear
11:53 AM 77.0 °F 37.9 °F 24% 29.90 in 10.0 mi West 8.1 mph - N/A   Clear
12:53 PM 82.9 °F 37.9 °F 20% 29.85 in 10.0 mi Variable 3.5 mph - N/A   Clear
1:53 PM 86.0 °F 37.9 °F 18% 29.81 in 10.0 mi ENE 4.6 mph - N/A   Clear
2:53 PM 90.0 °F 34.0 °F 14% 29.77 in 10.0 mi West 5.8 mph - N/A   Clear
3:53 PM 89.1 °F 32.0 °F 13% 29.76 in 10.0 mi WNW 8.1 mph 17.3 mph N/A   Clear
4:53 PM 88.0 °F 33.1 °F 14% 29.75 in 10.0 mi West 11.5 mph - N/A   Clear
5:53 PM 78.1 °F 43.0 °F 29% 29.83 in 7.0 mi WNW 29.9 mph 44.9 mph 0.00 in Rain Light Rain
6:53 PM 80.1 °F 37.9 °F 22% 29.80 in 10.0 mi West 8.1 mph 17.3 mph 0.00 in   Mostly Cloudy
7:53 PM 75.0 °F 41.0 °F 29% 29.81 in 10.0 mi West 10.4 mph - N/A   Clear
8:53 PM 72.0 °F 41.0 °F 33% 29.81 in 10.0 mi SW 10.4 mph - N/A   Mostly Cloudy
9:53 PM 72.0 °F 39.9 °F 31% 29.78 in 10.0 mi SSW 13.8 mph - N/A   Partly Cloudy
10:53 PM 73.0 °F 39.9 °F 30% 29.75 in 10.0 mi South 18.4 mph 31.1 mph N/A   Scattered Clouds
11:53 PM 71.1 °F 39.9 °F 32% 29.77 in 10.0 mi NW 8.1 mph - N/A   Overcast